| time (UTC) | temp F | wind direction | speed knots | gust knots | rain 1hr in | rain 24hr in | rain mn in | humidity % | barometer mb |
| 20260510192539 | 56 | 237 | 9.6 | 12.2 | 0.00 | 0.00 | 0.00 | 56 | 1015.7 |
| 20260510192031 | 56 | 249 | 8.7 | 12.2 | 0.00 | 0.00 | 0.00 | 58 | 1015.7 |
| 20260510191521 | 56 | 249 | 9.6 | 13.9 | 0.00 | 0.00 | 0.00 | 54 | 1015.7 |
| 20260510191114 | 56 | 253 | 8.7 | 13.9 | 0.00 | 0.00 | 0.00 | 52 | 1015.7 |
| 20260510190554 | 55 | 234 | 12.2 | 14.8 | 0.00 | 0.00 | 0.00 | 57 | 1015.6 |
| 20260510190044 | 55 | 227 | 12.2 | 15.6 | 0.00 | 0.00 | 0.00 | 58 | 1015.5 |
| 20260510185528 | 55 | 239 | 12.2 | 15.6 | 0.00 | 0.00 | 0.00 | 57 | 1015.5 |
| 20260510185039 | 54 | 230 | 12.2 | 15.6 | 0.00 | 0.00 | 0.00 | 55 | 1015.4 |
| 20260510184528 | 54 | 232 | 12.2 | 15.6 | 0.00 | 0.00 | 0.00 | 58 | 1015.4 |
| 20260510184041 | 54 | 234 | 10.4 | 15.6 | 0.00 | 0.00 | 0.00 | 59 | 1015.4 |
| 20260510183034 | 54 | 229 | 13.0 | 15.6 | 0.00 | 0.00 | 0.00 | 57 | 1015.3 |
| 20260510182523 | 54 | 227 | 12.2 | 15.6 | 0.00 | 0.00 | 0.00 | 57 | 1015.3 |
| 20260510182058 | 54 | 218 | 12.2 | 14.8 | 0.00 | 0.00 | 0.00 | 56 | 1015.2 |
| 20260510181530 | 54 | 229 | 10.4 | 13.9 | 0.00 | 0.00 | 0.00 | 54 | 1015.2 |
| 20260510181042 | 55 | 221 | 10.4 | 13.9 | 0.00 | 0.00 | 0.00 | 56 | 1015.2 |
| 20260510180524 | 56 | 237 | 10.4 | 12.2 | 0.00 | 0.00 | 0.00 | 53 | 1015.2 |
| 20260510180037 | 56 | 245 | 9.6 | 13.0 | 0.00 | 0.00 | 0.00 | 53 | 1015.1 |
| 20260510175527 | 55 | 252 | 10.4 | 14.8 | 0.00 | 0.00 | 0.00 | 52 | 1015.1 |
| 20260510175037 | 55 | 259 | 12.2 | 14.8 | 0.00 | 0.00 | 0.00 | 53 | 1015.0 |
| 20260510174610 | 55 | 247 | 11.3 | 13.9 | 0.00 | 0.00 | 0.00 | 52 | 1015.0 |
| 20260510174029 | 55 | 253 | 8.7 | 13.0 | 0.00 | 0.00 | 0.00 | 50 | 1015.1 |
| 20260510173600 | 56 | 244 | 9.6 | 13.9 | 0.00 | 0.00 | 0.00 | 53 | 1015.1 |
| 20260510173056 | 58 | 253 | 12.2 | 13.9 | 0.00 | 0.00 | 0.00 | 52 | 1015.1 |
| 20260510172542 | 57 | 250 | 9.6 | 14.8 | 0.00 | 0.00 | 0.00 | 50 | 1015.2 |
| 20260510172030 | 57 | 251 | 12.2 | 14.8 | 0.00 | 0.00 | 0.00 | 53 | 1015.3 |
| 20260510171540 | 57 | 250 | 11.3 | 16.5 | 0.00 | 0.00 | 0.00 | 51 | 1015.3 |
| 20260510171045 | 57 | 256 | 13.9 | 16.5 | 0.00 | 0.00 | 0.00 | 51 | 1015.4 |
| 20260510170529 | 57 | 254 | 12.2 | 17.4 | 0.00 | 0.00 | 0.00 | 50 | 1015.4 |
| 20260510170037 | 57 | 251 | 13.0 | 17.4 | 0.00 | 0.00 | 0.00 | 51 | 1015.4 |
| 20260510165551 | 56 | 260 | 11.3 | 17.4 | 0.00 | 0.00 | 0.00 | 46 | 1015.5 |
| 20260510165037 | 57 | 248 | 13.9 | 18.2 | 0.00 | 0.00 | 0.00 | 49 | 1015.4 |
| 20260510164529 | 57 | 248 | 12.2 | 18.2 | 0.00 | 0.00 | 0.00 | 49 | 1015.4 |
| 20260510164040 | 57 | 264 | 12.2 | 17.4 | 0.00 | 0.00 | 0.00 | 52 | 1015.4 |
| 20260510163559 | 56 | 264 | 12.2 | 16.5 | 0.00 | 0.00 | 0.00 | 54 | 1015.5 |
| 20260510163028 | 56 | 258 | 9.6 | 15.6 | 0.00 | 0.00 | 0.00 | 52 | 1015.4 |
| 20260510162537 | 56 | 249 | 11.3 | 16.5 | 0.00 | 0.00 | 0.00 | 54 | 1015.4 |
| 20260510162132 | 54 | 253 | 13.0 | 17.4 | 0.00 | 0.00 | 0.00 | 54 | 1015.4 |
| 20260510161524 | 56 | 241 | 11.3 | 18.2 | 0.00 | 0.00 | 0.00 | 52 | 1015.3 |
| 20260510161037 | 55 | 274 | 10.4 | 18.2 | 0.00 | 0.00 | 0.00 | 52 | 1015.3 |
| 20260510160523 | 55 | 257 | 10.4 | 14.8 | 0.00 | 0.00 | 0.00 | 53 | 1015.3 |
| 20260510160030 | 54 | 255 | 12.2 | 14.8 | 0.00 | 0.00 | 0.00 | 56 | 1015.3 |
| 20260510155521 | 54 | 254 | 10.4 | 15.6 | 0.00 | 0.00 | 0.00 | 52 | 1015.3 |
| 20260510155034 | 54 | 249 | 12.2 | 15.6 | 0.00 | 0.00 | 0.00 | 56 | 1015.3 |
| 20260510154535 | 54 | 262 | 11.3 | 15.6 | 0.00 | 0.00 | 0.00 | 59 | 1015.3 |
| 20260510154027 | 54 | 255 | 12.2 | 14.8 | 0.00 | 0.00 | 0.00 | 58 | 1015.3 |
| 20260510153535 | 53 | 260 | 11.3 | 13.0 | 0.00 | 0.00 | 0.00 | 57 | 1015.3 |
| 20260510153023 | 53 | 248 | 11.3 | 14.8 | 0.00 | 0.00 | 0.00 | 60 | 1015.3 |
| 20260510152528 | 53 | 256 | 11.3 | 14.8 | 0.00 | 0.00 | 0.00 | 59 | 1015.2 |
| 20260510152041 | 54 | 258 | 11.3 | 16.5 | 0.00 | 0.00 | 0.00 | 60 | 1015.2 |
| 20260510151554 | 54 | 254 | 12.2 | 16.5 | 0.00 | 0.00 | 0.00 | 60 | 1015.2 |
| 20260510151039 | 53 | 261 | 10.4 | 15.6 | 0.00 | 0.00 | 0.00 | 58 | 1015.1 |
| 20260510150554 | 53 | 279 | 11.3 | 15.6 | 0.00 | 0.00 | 0.00 | 57 | 1015.1 |
| 20260510150041 | 53 | 257 | 11.3 | 15.6 | 0.00 | 0.00 | 0.00 | 55 | 1015.0 |
| 20260510145553 | 53 | 265 | 12.2 | 15.6 | 0.00 | 0.00 | 0.00 | 57 | 1015.0 |
| 20260510145038 | 52 | 258 | 9.6 | 15.6 | 0.00 | 0.00 | 0.00 | 56 | 1014.9 |
| 20260510144527 | 52 | 252 | 9.6 | 13.0 | 0.00 | 0.00 | 0.00 | 57 | 1014.9 |
| 20260510144039 | 52 | 254 | 8.7 | 13.0 | 0.00 | 0.00 | 0.00 | 59 | 1014.7 |
| 20260510143530 | 52 | 281 | 8.7 | 12.2 | 0.00 | 0.00 | 0.00 | 57 | 1014.7 |
| 20260510143040 | 51 | 271 | 5.2 | 12.2 | 0.00 | 0.00 | 0.00 | 57 | 1014.7 |
| 20260510142524 | 51 | 296 | 4.3 | 12.2 | 0.00 | 0.00 | 0.00 | 59 | 1014.7 |
| 20260510142054 | 51 | 259 | 5.2 | 11.3 | 0.00 | 0.00 | 0.00 | 57 | 1014.7 |
| 20260510141539 | 51 | 253 | 6.1 | 11.3 | 0.00 | 0.00 | 0.00 | 60 | 1014.6 |
| 20260510141029 | 51 | 318 | 5.2 | 10.4 | 0.00 | 0.00 | 0.00 | 61 | 1014.6 |
| 20260510140531 | 51 | 292 | 4.3 | 9.6 | 0.00 | 0.00 | 0.00 | 62 | 1014.7 |
| 20260510140035 | 50 | 328 | 4.3 | 13.0 | 0.00 | 0.00 | 0.00 | 61 | 1014.6 |
| 20260510135521 | 50 | 240 | 7.8 | 13.9 | 0.00 | 0.00 | 0.00 | 62 | 1014.6 |
| 20260510135025 | 50 | 271 | 8.7 | 13.9 | 0.00 | 0.00 | 0.00 | 62 | 1014.6 |
| 20260510134535 | 50 | 300 | 6.1 | 14.8 | 0.00 | 0.00 | 0.00 | 61 | 1014.6 |
| 20260510134045 | 50 | 255 | 7.8 | 14.8 | 0.00 | 0.00 | 0.00 | 62 | 1014.6 |
| 20260510133530 | 50 | 253 | 6.1 | 12.2 | 0.00 | 0.00 | 0.00 | 63 | 1014.5 |
| 20260510133040 | 50 | 306 | 4.3 | 13.9 | 0.00 | 0.00 | 0.00 | 61 | 1014.6 |
| 20260510132528 | 49 | 302 | 6.1 | 13.9 | 0.00 | 0.00 | 0.00 | 61 | 1014.5 |
| 20260510132039 | 49 | 286 | 5.2 | 13.0 | 0.00 | 0.00 | 0.00 | 61 | 1014.5 |
| 20260510131523 | 50 | 265 | 5.2 | 11.3 | 0.00 | 0.00 | 0.00 | 61 | 1014.5 |
| 20260510131051 | 49 | 256 | 4.3 | 8.7 | 0.00 | 0.00 | 0.00 | 61 | 1014.4 |
| 20260510130556 | 49 | 321 | 2.6 | 9.6 | 0.00 | 0.00 | 0.00 | 63 | 1014.4 |
| 20260510130026 | 48 | 327 | 3.5 | 9.6 | 0.00 | 0.00 | 0.00 | 64 | 1014.5 |
| 20260510125558 | 48 | 344 | 4.3 | 9.6 | 0.00 | 0.00 | 0.00 | 63 | 1014.4 |
| 20260510125029 | 48 | 325 | 4.3 | 9.6 | 0.00 | 0.00 | 0.00 | 64 | 1014.4 |
| 20260510124533 | 48 | 314 | 4.3 | 8.7 | 0.00 | 0.00 | 0.00 | 66 | 1014.2 |
| 20260510124050 | 48 | 6 | 2.6 | 9.6 | 0.00 | 0.00 | 0.00 | 65 | 1014.3 |
| 20260510123537 | 47 | 263 | 5.2 | 9.6 | 0.00 | 0.00 | 0.00 | 66 | 1014.1 |
| 20260510123025 | 47 | 344 | 5.2 | 10.4 | 0.00 | 0.00 | 0.00 | 67 | 1014.0 |
| 20260510122534 | 47 | 322 | 5.2 | 10.4 | 0.00 | 0.00 | 0.00 | 65 | 1014.0 |
| 20260510122037 | 47 | 1 | 4.3 | 8.7 | 0.00 | 0.00 | 0.00 | 64 | 1013.9 |
| 20260510121547 | 47 | 299 | 4.3 | 7.8 | 0.00 | 0.00 | 0.00 | 64 | 1013.9 |
| 20260510121038 | 47 | 281 | 3.5 | 7.0 | 0.00 | 0.00 | 0.00 | 65 | 1013.8 |
| 20260510120526 | 46 | 276 | 4.3 | 8.7 | 0.00 | 0.00 | 0.00 | 67 | 1013.8 |
| 20260510120039 | 46 | 334 | 5.2 | 8.7 | 0.00 | 0.00 | 0.00 | 67 | 1013.8 |
| 20260510115522 | 46 | 310 | 2.6 | 8.7 | 0.00 | 0.00 | 0.00 | 67 | 1013.6 |
| 20260510115038 | 46 | 259 | 3.5 | 7.8 | 0.00 | 0.00 | 0.00 | 67 | 1013.5 |
| 20260510114544 | 46 | 278 | 4.3 | 8.7 | 0.00 | 0.00 | 0.00 | 66 | 1013.5 |
| 20260510114032 | 46 | 297 | 4.3 | 8.7 | 0.00 | 0.00 | 0.00 | 65 | 1013.5 |
| 20260510113540 | 46 | 253 | 4.3 | 8.7 | 0.00 | 0.00 | 0.00 | 65 | 1013.4 |
| 20260510113041 | 46 | 290 | 5.2 | 8.7 | 0.00 | 0.00 | 0.00 | 63 | 1013.3 |
| 20260510112526 | 45 | 269 | 3.5 | 7.8 | 0.00 | 0.00 | 0.00 | 66 | 1013.2 |
| 20260510112041 | 45 | 333 | 3.5 | 6.1 | 0.00 | 0.00 | 0.00 | 66 | 1013.1 |
| 20260510111529 | 45 | 331 | 3.5 | 6.1 | 0.00 | 0.00 | 0.00 | 67 | 1013.0 |
| 20260510111041 | 45 | 295 | 2.6 | 6.1 | 0.00 | 0.00 | 0.00 | 66 | 1012.8 |
| 20260510110522 | 45 | 269 | 1.7 | 7.8 | 0.00 | 0.00 | 0.00 | 67 | 1012.7 |
| 20260510110026 | 45 | 302 | 2.6 | 6.1 | 0.00 | 0.00 | 0.00 | 66 | 1012.7 |
| 20260510105523 | 45 | 314 | 2.6 | 6.1 | 0.00 | 0.00 | 0.00 | 66 | 1012.7 |
| 20260510105033 | 45 | 326 | 2.6 | 7.0 | 0.00 | 0.00 | 0.00 | 66 | 1012.6 |
| 20260510104540 | 45 | 308 | 3.5 | 7.0 | 0.00 | 0.00 | 0.00 | 67 | 1012.4 |
| 20260510104035 | 45 | 257 | 2.6 | 6.1 | 0.00 | 0.00 | 0.00 | 67 | 1012.3 |
| 20260510103521 | 45 | 317 | 2.6 | 7.0 | 0.00 | 0.00 | 0.00 | 67 | 1012.3 |
| 20260510103032 | 45 | 320 | 2.6 | 7.0 | 0.00 | 0.00 | 0.00 | 66 | 1012.3 |
| 20260510102537 | 45 | 296 | 2.6 | 7.0 | 0.00 | 0.00 | 0.00 | 67 | 1012.2 |
| 20260510102028 | 45 | 293 | 2.6 | 7.8 | 0.00 | 0.00 | 0.00 | 67 | 1012.2 |
| 20260510101532 | 45 | 301 | 3.5 | 7.8 | 0.00 | 0.00 | 0.00 | 67 | 1012.1 |
| 20260510101028 | 45 | 303 | 2.6 | 7.0 | 0.00 | 0.00 | 0.00 | 67 | 1012.1 |
| 20260510100040 | 45 | 306 | 3.5 | 7.0 | 0.00 | 0.00 | 0.00 | 67 | 1012.1 |
| 20260510095528 | 45 | 331 | 2.6 | 7.0 | 0.00 | 0.00 | 0.00 | 67 | 1012.0 |
| 20260510095042 | 45 | 303 | 2.6 | 6.1 | 0.00 | 0.00 | 0.00 | 66 | 1012.0 |
| 20260510094531 | 45 | 293 | 2.6 | 6.1 | 0.00 | 0.00 | 0.00 | 66 | 1012.0 |
| 20260510094037 | 45 | 315 | 2.6 | 6.1 | 0.00 | 0.00 | 0.00 | 66 | 1011.8 |
| 20260510093526 | 45 | 314 | 2.6 | 7.0 | 0.00 | 0.00 | 0.00 | 65 | 1011.7 |
| 20260510093036 | 45 | 328 | 3.5 | 7.0 | 0.00 | 0.00 | 0.00 | 66 | 1011.7 |
| 20260510092539 | 45 | 331 | 2.6 | 6.1 | 0.00 | 0.00 | 0.00 | 67 | 1011.6 |
| 20260510092055 | 45 | 314 | 2.6 | 7.0 | 0.00 | 0.00 | 0.00 | 67 | 1011.6 |
| 20260510091521 | 45 | 303 | 2.6 | 6.1 | 0.00 | 0.00 | 0.00 | 67 | 1011.6 |
| 20260510091059 | 45 | 314 | 3.5 | 6.1 | 0.00 | 0.00 | 0.00 | 66 | 1011.5 |
| 20260510090552 | 45 | 307 | 3.5 | 7.0 | 0.00 | 0.00 | 0.00 | 65 | 1011.5 |
| 20260510090107 | 45 | 326 | 3.5 | 7.0 | 0.00 | 0.00 | 0.00 | 65 | 1011.3 |
| 20260510085540 | 45 | 304 | 3.5 | 7.0 | 0.00 | 0.00 | 0.00 | 66 | 1011.2 |
| 20260510085033 | 45 | 354 | 4.3 | 7.8 | 0.00 | 0.00 | 0.00 | 65 | 1011.2 |
| 20260510084540 | 45 | 105 | 2.6 | 7.8 | 0.00 | 0.00 | 0.00 | 65 | 1011.2 |
| 20260510083530 | 45 | 315 | 2.6 | 7.8 | 0.00 | 0.00 | 0.00 | 66 | 1011.1 |
| 20260510083041 | 45 | 316 | 3.5 | 9.6 | 0.00 | 0.00 | 0.00 | 65 | 1011.0 |
| 20260510082530 | 45 | 314 | 4.3 | 10.4 | 0.00 | 0.00 | 0.00 | 64 | 1010.9 |
| 20260510082035 | 45 | 337 | 3.5 | 10.4 | 0.00 | 0.00 | 0.00 | 66 | 1010.9 |
| 20260510081524 | 45 | 348 | 5.2 | 10.4 | 0.00 | 0.00 | 0.00 | 63 | 1010.8 |
| 20260510081037 | 46 | 254 | 5.2 | 11.3 | 0.00 | 0.00 | 0.00 | 64 | 1010.8 |
| 20260510080531 | 46 | 40 | 4.3 | 11.3 | 0.00 | 0.00 | 0.00 | 65 | 1010.7 |
| 20260510080043 | 46 | 333 | 4.3 | 8.7 | 0.00 | 0.00 | 0.00 | 67 | 1010.7 |
| 20260510075528 | 46 | 323 | 4.3 | 10.4 | 0.00 | 0.00 | 0.00 | 67 | 1010.6 |
| 20260510075103 | 46 | 20 | 6.1 | 10.4 | 0.00 | 0.00 | 0.00 | 67 | 1010.5 |
| 20260510074527 | 46 | 356 | 5.2 | 11.3 | 0.00 | 0.00 | 0.00 | 67 | 1010.5 |
| 20260510074039 | 46 | 348 | 5.2 | 11.3 | 0.00 | 0.00 | 0.00 | 67 | 1010.4 |
| 20260510073527 | 46 | 303 | 5.2 | 11.3 | 0.00 | 0.00 | 0.00 | 67 | 1010.2 |
| 20260510073033 | 46 | 324 | 3.5 | 11.3 | 0.00 | 0.00 | 0.00 | 67 | 1010.2 |
| 20260510072539 | 46 | 346 | 6.1 | 13.0 | 0.00 | 0.00 | 0.00 | 67 | 1010.2 |
| 20260510072103 | 46 | 330 | 5.2 | 13.0 | 0.00 | 0.00 | 0.00 | 65 | 1010.0 |
| 20260510071033 | 47 | 316 | 4.3 | 14.8 | 0.00 | 0.00 | 0.00 | 65 | 1009.9 |
| 20260510070540 | 47 | 314 | 5.2 | 14.8 | 0.00 | 0.00 | 0.00 | 65 | 1009.9 |
| 20260510070026 | 47 | 331 | 6.1 | 11.3 | 0.00 | 0.00 | 0.00 | 65 | 1009.8 |
| 20260510065558 | 47 | 332 | 4.3 | 11.3 | 0.00 | 0.00 | 0.00 | 64 | 1009.7 |
| 20260510065027 | 47 | 279 | 5.2 | 10.4 | 0.00 | 0.00 | 0.00 | 65 | 1009.7 |
| 20260510064533 | 47 | 321 | 5.2 | 9.6 | 0.00 | 0.00 | 0.00 | 65 | 1009.7 |
| 20260510064026 | 47 | 347 | 4.3 | 11.3 | 0.00 | 0.00 | 0.00 | 65 | 1009.7 |
| 20260510063535 | 47 | 345 | 2.6 | 11.3 | 0.00 | 0.00 | 0.00 | 64 | 1009.6 |
| 20260510063049 | 48 | 283 | 4.3 | 13.9 | 0.00 | 0.00 | 0.00 | 66 | 1009.7 |
| 20260510062532 | 48 | 334 | 3.5 | 13.9 | 0.00 | 0.00 | 0.00 | 65 | 1009.6 |
| 20260510062024 | 48 | 312 | 3.5 | 12.2 | 0.00 | 0.00 | 0.00 | 64 | 1009.6 |
| 20260510061533 | 48 | 20 | 4.3 | 12.2 | 0.00 | 0.00 | 0.00 | 63 | 1009.5 |
| 20260510061055 | 48 | 46 | 4.3 | 7.8 | 0.00 | 0.00 | 0.00 | 65 | 1009.5 |
| 20260510060531 | 48 | 320 | 3.5 | 9.6 | 0.00 | 0.00 | 0.00 | 65 | 1009.5 |
| 20260510060047 | 48 | 329 | 3.5 | 9.6 | 0.00 | 0.00 | 0.00 | 64 | 1009.4 |
| 20260510055530 | 48 | 323 | 5.2 | 11.3 | 0.00 | 0.00 | 0.00 | 63 | 1009.3 |
| 20260510055055 | 48 | 1 | 4.3 | 11.3 | 0.00 | 0.00 | 0.00 | 63 | 1009.3 |
| 20260510054523 | 48 | 1 | 6.1 | 10.4 | 0.00 | 0.00 | 0.00 | 63 | 1009.2 |
| 20260510054036 | 49 | 344 | 2.6 | 10.4 | 0.00 | 0.00 | 0.00 | 63 | 1009.2 |
| 20260510053540 | 49 | 4 | 3.5 | 7.0 | 0.00 | 0.00 | 0.00 | 62 | 1009.1 |
| 20260510053041 | 49 | 314 | 3.5 | 8.7 | 0.00 | 0.00 | 0.00 | 62 | 1008.9 |
| 20260510052529 | 49 | 35 | 2.6 | 13.0 | 0.00 | 0.00 | 0.00 | 60 | 1009.0 |
| 20260510052039 | 49 | 179 | 3.5 | 13.0 | 0.00 | 0.00 | 0.00 | 60 | 1008.9 |
| 20260510051528 | 49 | 4 | 4.3 | 12.2 | 0.00 | 0.00 | 0.00 | 61 | 1008.8 |
| 20260510051039 | 49 | 269 | 2.6 | 9.6 | 0.00 | 0.00 | 0.00 | 61 | 1008.7 |
| 20260510050524 | 49 | 339 | 3.5 | 9.6 | 0.00 | 0.00 | 0.00 | 60 | 1008.7 |
| 20260510050026 | 49 | 343 | 2.6 | 10.4 | 0.00 | 0.00 | 0.00 | 61 | 1008.6 |
| 20260510045600 | 50 | 346 | 2.6 | 10.4 | 0.00 | 0.00 | 0.00 | 60 | 1008.5 |
| 20260510045033 | 50 | 320 | 1.7 | 7.0 | 0.00 | 0.00 | 0.00 | 60 | 1008.4 |
| 20260510044537 | 50 | 298 | 2.6 | 10.4 | 0.00 | 0.00 | 0.00 | 60 | 1008.4 |
| 20260510044040 | 50 | 338 | 2.6 | 10.4 | 0.00 | 0.00 | 0.00 | 59 | 1008.4 |
| 20260510043528 | 50 | 269 | 2.6 | 9.6 | 0.00 | 0.00 | 0.00 | 60 | 1008.3 |
| 20260510043035 | 50 | 6 | 4.3 | 11.3 | 0.00 | 0.00 | 0.00 | 61 | 1008.3 |
| 20260510042522 | 51 | 6 | 4.3 | 11.3 | 0.00 | 0.00 | 0.00 | 62 | 1008.2 |
| 20260510042031 | 51 | 353 | 5.2 | 10.4 | 0.00 | 0.00 | 0.00 | 62 | 1008.0 |
| 20260510041536 | 51 | 317 | 4.3 | 9.6 | 0.00 | 0.00 | 0.00 | 62 | 1008.0 |
| 20260510041027 | 51 | 324 | 4.3 | 8.7 | 0.00 | 0.00 | 0.00 | 62 | 1007.9 |
| 20260510040600 | 51 | 321 | 4.3 | 8.7 | 0.00 | 0.00 | 0.00 | 62 | 1007.8 |
| 20260510040045 | 51 | 344 | 3.5 | 8.7 | 0.00 | 0.00 | 0.00 | 60 | 1007.8 |
| 20260510035540 | 51 | 306 | 3.5 | 10.4 | 0.00 | 0.00 | 0.00 | 60 | 1007.8 |
| 20260510035032 | 52 | 350 | 4.3 | 11.3 | 0.00 | 0.00 | 0.00 | 59 | 1007.7 |
| 20260510034540 | 52 | 21 | 5.2 | 11.3 | 0.00 | 0.00 | 0.00 | 60 | 1007.6 |
| 20260510034028 | 52 | 330 | 3.5 | 9.6 | 0.00 | 0.00 | 0.00 | 60 | 1007.6 |
| 20260510033534 | 52 | 278 | 3.5 | 7.8 | 0.00 | 0.00 | 0.00 | 59 | 1007.3 |
| 20260510033024 | 52 | 298 | 2.6 | 11.3 | 0.00 | 0.00 | 0.00 | 60 | 1007.3 |
| 20260510032532 | 52 | 291 | 3.5 | 11.3 | 0.00 | 0.00 | 0.00 | 59 | 1007.2 |
| 20260510032040 | 53 | 335 | 2.6 | 13.9 | 0.00 | 0.00 | 0.00 | 59 | 1007.0 |
| 20260510031532 | 53 | 341 | 3.5 | 13.9 | 0.00 | 0.00 | 0.00 | 57 | 1007.0 |
| 20260510031027 | 53 | 355 | 3.5 | 10.4 | 0.00 | 0.00 | 0.00 | 58 | 1006.8 |
| 20260510030533 | 53 | 348 | 3.5 | 9.6 | 0.00 | 0.00 | 0.00 | 60 | 1006.8 |
| 20260510030025 | 54 | 338 | 3.5 | 10.4 | 0.00 | 0.00 | 0.00 | 60 | 1006.8 |
| 20260510025533 | 54 | 108 | 3.5 | 11.3 | 0.00 | 0.00 | 0.00 | 58 | 1006.7 |
| 20260510025024 | 54 | 355 | 5.2 | 11.3 | 0.00 | 0.00 | 0.00 | 59 | 1006.5 |
| 20260510024529 | 54 | 349 | 3.5 | 12.2 | 0.00 | 0.00 | 0.00 | 59 | 1006.4 |
| 20260510024041 | 54 | 310 | 2.6 | 9.6 | 0.00 | 0.00 | 0.00 | 60 | 1006.3 |
| 20260510023527 | 54 | 327 | 4.3 | 8.7 | 0.00 | 0.00 | 0.00 | 60 | 1006.2 |
| 20260510023046 | 54 | 330 | 2.6 | 7.8 | 0.00 | 0.00 | 0.00 | 60 | 1006.0 |
| 20260510022533 | 54 | 344 | 4.3 | 7.8 | 0.00 | 0.00 | 0.00 | 60 | 1006.0 |
| 20260510022024 | 54 | 293 | 2.6 | 7.8 | 0.00 | 0.00 | 0.00 | 60 | 1005.8 |
| 20260510021535 | 54 | 307 | 3.5 | 6.1 | 0.00 | 0.00 | 0.00 | 59 | 1005.8 |
| 20260510021023 | 54 | 314 | 2.6 | 6.1 | 0.00 | 0.00 | 0.00 | 59 | 1005.6 |
| 20260510020531 | 54 | 316 | 3.5 | 7.0 | 0.00 | 0.00 | 0.00 | 59 | 1005.5 |
| 20260510020045 | 54 | 295 | 3.5 | 7.0 | 0.00 | 0.00 | 0.00 | 59 | 1005.5 |
| 20260510015554 | 54 | 283 | 2.6 | 6.1 | 0.00 | 0.00 | 0.00 | 60 | 1005.4 |
| 20260510015059 | 54 | 346 | 2.6 | 6.1 | 0.00 | 0.00 | 0.00 | 60 | 1005.3 |
| 20260510014551 | 54 | 303 | 2.6 | 6.1 | 0.00 | 0.00 | 0.00 | 60 | 1005.2 |
| 20260510014039 | 55 | 314 | 2.6 | 7.0 | 0.00 | 0.00 | 0.00 | 60 | 1005.0 |
| 20260510013033 | 55 | 342 | 2.6 | 7.8 | 0.00 | 0.00 | 0.00 | 60 | 1004.7 |
| 20260510012540 | 55 | 301 | 3.5 | 7.8 | 0.00 | 0.00 | 0.00 | 61 | 1004.6 |
| 20260510012118 | 55 | 286 | 3.5 | 9.6 | 0.00 | 0.00 | 0.00 | 61 | 1004.5 |
| 20260510011525 | 55 | 303 | 3.5 | 7.0 | 0.00 | 0.00 | 0.00 | 61 | 1004.4 |
| 20260510011038 | 55 | 326 | 3.5 | 9.6 | 0.00 | 0.00 | 0.00 | 62 | 1004.3 |
| 20260510010524 | 55 | 324 | 3.5 | 9.6 | 0.00 | 0.00 | 0.00 | 60 | 1004.1 |
| 20260510010038 | 55 | 302 | 5.2 | 9.6 | 0.00 | 0.00 | 0.00 | 61 | 1004.0 |
| 20260510005522 | 55 | 274 | 3.5 | 8.7 | 0.00 | 0.00 | 0.00 | 62 | 1003.8 |
| 20260510005035 | 55 | 299 | 4.3 | 9.6 | 0.00 | 0.00 | 0.00 | 61 | 1003.8 |
| 20260510004026 | 56 | 328 | 3.5 | 9.6 | 0.00 | 0.00 | 0.00 | 62 | 1003.5 |
| 20260510003534 | 56 | 346 | 4.3 | 9.6 | 0.00 | 0.00 | 0.00 | 61 | 1003.5 |
| 20260510003026 | 56 | 308 | 4.3 | 9.6 | 0.00 | 0.00 | 0.00 | 62 | 1003.4 |
| 20260510002538 | 57 | 347 | 5.2 | 11.3 | 0.00 | 0.00 | 0.00 | 62 | 1003.4 |
| 20260510002025 | 57 | 338 | 5.2 | 11.3 | 0.00 | 0.00 | 0.00 | 61 | 1003.3 |
| 20260510001533 | 57 | 284 | 5.2 | 12.2 | 0.00 | 0.00 | 0.00 | 61 | 1003.1 |
| 20260510001026 | 57 | 328 | 7.0 | 13.0 | 0.00 | 0.00 | 0.00 | 61 | 1003.0 |
| 20260510000530 | 57 | 299 | 7.0 | 12.2 | 0.00 | 0.00 | 0.00 | 61 | 1003.0 |
| 20260510000041 | 57 | 338 | 4.3 | 13.9 | 0.00 | 0.00 | 0.00 | 61 | 1002.8 |
| 20260509235614 | 57 | 338 | 4.3 | 13.9 | 0.00 | 0.00 | 0.00 | 59 | 1002.7 |
| 20260509235025 | 58 | 319 | 7.0 | 13.9 | 0.00 | 0.00 | 0.00 | 58 | 1002.5 |
| 20260509234535 | 58 | 293 | 7.0 | 13.9 | 0.00 | 0.00 | 0.00 | 59 | 1002.4 |
| 20260509234030 | 58 | 319 | 6.1 | 13.0 | 0.00 | 0.00 | 0.00 | 59 | 1002.2 |
| 20260509233538 | 58 | 293 | 4.3 | 13.0 | 0.00 | 0.00 | 0.00 | 60 | 1002.1 |
| 20260509233026 | 58 | 327 | 6.1 | 18.2 | 0.00 | 0.00 | 0.00 | 60 | 1002.1 |
| 20260509232534 | 58 | 355 | 7.0 | 18.2 | 0.00 | 0.00 | 0.00 | 61 | 1002.0 |
| 20260509232046 | 58 | 342 | 5.2 | 15.6 | 0.00 | 0.00 | 0.00 | 62 | 1001.9 |
| 20260509231530 | 58 | 319 | 6.1 | 13.9 | 0.00 | 0.00 | 0.00 | 63 | 1001.7 |
| 20260509231023 | 58 | 343 | 6.1 | 13.0 | 0.00 | 0.00 | 0.00 | 65 | 1001.6 |
| 20260509230533 | 58 | 20 | 4.3 | 11.3 | 0.00 | 0.00 | 0.00 | 66 | 1001.5 |
| 20260509230026 | 58 | 307 | 6.1 | 13.9 | 0.00 | 0.00 | 0.00 | 65 | 1001.4 |
| 20260509225537 | 58 | 6 | 6.1 | 14.8 | 0.00 | 0.00 | 0.00 | 64 | 1001.2 |
| 20260509225031 | 59 | 331 | 5.2 | 14.8 | 0.00 | 0.00 | 0.00 | 64 | 1001.2 |
| 20260509224540 | 59 | 337 | 5.2 | 13.9 | 0.00 | 0.00 | 0.00 | 66 | 1001.0 |
| 20260509224027 | 59 | 312 | 6.1 | 13.0 | 0.00 | 0.00 | 0.00 | 65 | 1000.9 |
| 20260509223538 | 59 | 348 | 3.5 | 10.4 | 0.00 | 0.00 | 0.00 | 64 | 1000.8 |
| 20260509223055 | 60 | 46 | 4.3 | 14.8 | 0.00 | 0.00 | 0.00 | 64 | 1000.7 |
| 20260509222524 | 61 | 320 | 7.0 | 14.8 | 0.00 | 0.00 | 0.00 | 61 | 1000.7 |
| 20260509222036 | 63 | 306 | 3.5 | 16.5 | 0.00 | 0.00 | 0.00 | 58 | 1000.4 |
| 20260509221542 | 63 | 319 | 7.0 | 15.6 | 0.00 | 0.00 | 0.00 | 55 | 1000.3 |
| 20260509221031 | 62 | 297 | 7.8 | 13.9 | 0.00 | 0.00 | 0.00 | 58 | 1000.2 |
| 20260509220533 | 62 | 306 | 7.0 | 13.9 | 0.00 | 0.00 | 0.00 | 58 | 1000.1 |
| 20260509220025 | 62 | 272 | 5.2 | 11.3 | 0.00 | 0.00 | 0.00 | 57 | 1000.0 |
| 20260509215038 | 63 | 316 | 4.3 | 13.0 | 0.00 | 0.00 | 0.00 | 60 | 999.9 |
| 20260509214528 | 64 | 304 | 5.2 | 13.9 | 0.00 | 0.00 | 0.00 | 58 | 999.8 |
| 20260509214041 | 64 | 319 | 7.0 | 13.9 | 0.00 | 0.00 | 0.00 | 57 | 999.7 |
| 20260509213551 | 63 | 330 | 7.0 | 12.2 | 0.00 | 0.00 | 0.00 | 55 | 999.7 |
| 20260509213050 | 64 | 296 | 7.8 | 13.0 | 0.00 | 0.00 | 0.00 | 57 | 999.6 |
| 20260509212538 | 64 | 305 | 7.0 | 13.9 | 0.00 | 0.00 | 0.00 | 56 | 999.7 |
| 20260509212036 | 64 | 259 | 7.0 | 16.5 | 0.00 | 0.00 | 0.00 | 56 | 999.6 |
| 20260509211549 | 64 | 316 | 8.7 | 16.5 | 0.00 | 0.00 | 0.00 | 54 | 999.5 |
| 20260509211040 | 65 | 247 | 8.7 | 19.1 | 0.00 | 0.00 | 0.00 | 56 | 999.5 |
| 20260509210610 | 65 | 299 | 11.3 | 21.7 | 0.00 | 0.00 | 0.00 | 53 | 999.4 |
| 20260509210028 | 65 | 297 | 13.0 | 21.7 | 0.00 | 0.00 | 0.00 | 54 | 999.4 |
| 20260509205602 | 65 | 265 | 10.4 | 20.0 | 0.00 | 0.00 | 0.00 | 52 | 999.3 |
| 20260509205029 | 65 | 290 | 9.6 | 19.1 | 0.00 | 0.00 | 0.00 | 55 | 999.4 |
| 20260509204528 | 65 | 281 | 12.2 | 19.1 | 0.00 | 0.00 | 0.00 | 58 | 999.3 |
| 20260509204043 | 64 | 284 | 9.6 | 15.6 | 0.00 | 0.00 | 0.00 | 60 | 999.3 |
| 20260509203527 | 64 | 295 | 10.4 | 18.2 | 0.00 | 0.00 | 0.00 | 63 | 999.3 |
| 20260509203038 | 64 | 264 | 10.4 | 18.2 | 0.00 | 0.00 | 0.00 | 57 | 999.3 |
| 20260509202528 | 64 | 252 | 12.2 | 20.9 | 0.00 | 0.00 | 0.00 | 58 | 999.3 |
| 20260509202040 | 64 | 259 | 12.2 | 20.9 | 0.00 | 0.00 | 0.00 | 62 | 999.3 |
| 20260509201525 | 64 | 262 | 12.2 | 17.4 | 0.00 | 0.00 | 0.00 | 65 | 999.3 |
| 20260509201036 | 64 | 247 | 11.3 | 17.4 | 0.00 | 0.00 | 0.00 | 66 | 999.3 |
| 20260509200547 | 63 | 262 | 12.2 | 18.2 | 0.00 | 0.00 | 0.00 | 67 | 999.3 |
| 20260509200033 | 64 | 244 | 13.9 | 19.1 | 0.00 | 0.00 | 0.00 | 67 | 999.3 |
| 20260509195529 | 63 | 263 | 13.9 | 20.0 | 0.00 | 0.00 | 0.00 | 67 | 999.3 |
| 20260509195039 | 63 | 274 | 13.9 | 22.6 | 0.00 | 0.00 | 0.00 | 68 | 999.3 |
| 20260509194524 | 62 | 228 | 14.8 | 22.6 | 0.00 | 0.00 | 0.00 | 70 | 999.3 |
| 20260509194034 | 62 | 246 | 17.4 | 24.3 | 0.00 | 0.00 | 0.00 | 71 | 999.2 |
| 20260509193523 | 62 | 246 | 18.2 | 24.3 | 0.00 | 0.00 | 0.00 | 73 | 999.2 |
| 20260509193055 | 61 | 258 | 20.0 | 25.2 | 0.00 | 0.00 | 0.00 | 74 | 999.3 |